Weather History for Estherville, IA

Change the Weather History Date:

Saturday, January 10, 2015

  Actual Average Record
Temperature  
Mean Temperature 9 °F 15 °F  
Max Temperature 24 °F 24 °F 55 °F (2012)
Min Temperature -7 °F 7 °F -27 °F (1982)
Degree Days  
Heating Degree Days 56 50  
Month to date heating degree days 592 495  
Since 1 July heating degree days 3759 3638  
Cooling Degree Days 0 0  
Month to date cooling degree days 0 0  
Year to date cooling degree days 0 0  
Moisture  
Dew Point 3 °F    
Average Humidity 76    
Maximum Humidity 84    
Minimum Humidity 67    
Precipitation  
Precipitation 0.00 in 0.00 in 0.15 in (1963)
Month to date precipitation 0.06 0.07  
Sea Level Pressure  
Sea Level Pressure 30.18 in    
Wind  
Wind Speed 11 mph (SW)    
Max Wind Speed 24 mph    
Max Gust Speed 28 mph    
Visibility 10 miles    
Events      
T = Trace of Precipitation, MM = Missing Value Source: NWS Daily Summary

Daily Weather History Graph

Daily Weather History Graph

Search for Another Location

Airport:

Trip Planner

Search our weather history database for the weather conditions in past years. The results will help you decide how hot, cold, wet, or windy it might be!

Date:

Astronomy

Jan. 10, 2015 Rise Set
Actual Time 7:50 AM CST 5:02 PM CST
Civil Twilight 7:18 AM CST 5:34 PM CST
Nautical Twilight 6:43 AM CST 6:10 PM CST
Astronomical Twilight 6:08 AM CST 6:44 PM CST
Moon 10:41 PM CST (1/10) 10:27 AM CST (1/10)
Length of Visible Light 10h 15m
Length of Day
9h 11m
Waning Gibbous, 74% of the Moon is Illuminated
Jan 10
Waning Gibbous
Jan 13
Last Quarter
Jan 20
New
Jan 26
First Quarter
Feb 3
Full

Hourly Weather History & Observations

Time (CST) Temp. Windchill Dew Point Humidity Pressure Visibility Wind Dir Wind Speed Gust Speed Precip Events Conditions
12:52 AM -4.0 °F -17.8 °F -9.0 °F 79% 30.38 in 10.0 mi SW 6.9 mph - N/A   Clear
1:52 AM -4.0 °F -21.2 °F -9.0 °F 79% 30.35 in 10.0 mi WSW 10.4 mph - N/A   Clear
2:52 AM -0.9 °F -18.3 °F -7.1 °F 75% 30.34 in 10.0 mi SW 11.5 mph - N/A   Clear
3:52 AM -2.0 °F -17.7 °F -8.0 °F 76% 30.31 in 10.0 mi South 9.2 mph - N/A   Clear
4:52 AM -4.0 °F -20.2 °F -9.0 °F 79% 30.28 in 10.0 mi South 9.2 mph - N/A   Clear
5:52 AM -6.0 °F -23.6 °F -9.9 °F 83% 30.25 in 10.0 mi South 10.4 mph - N/A   Clear
6:52 AM -5.1 °F -25.1 °F -9.9 °F 80% 30.21 in 10.0 mi South 13.8 mph - N/A   Clear
7:52 AM -2.0 °F -20.5 °F -7.1 °F 79% 30.16 in 10.0 mi South 12.7 mph - N/A   Clear
8:52 AM 5.0 °F -13.6 °F -0.9 °F 76% 30.13 in 10.0 mi South 16.1 mph - N/A   Partly Cloudy
9:52 AM 9.0 °F -7.9 °F 1.0 °F 70% 30.12 in 10.0 mi South 15.0 mph - N/A   Clear
10:52 AM 15.1 °F -2.9 °F 7.0 °F 70% 30.09 in 10.0 mi South 21.9 mph - N/A   Mostly Cloudy
11:52 AM 17.1 °F 2.0 °F 9.0 °F 71% 30.05 in 10.0 mi SSW 16.1 mph - N/A   Partly Cloudy
12:52 PM 21.9 °F 7.8 °F 12.0 °F 66% 30.03 in 10.0 mi SW 17.3 mph - N/A   Clear
1:52 PM 24.1 °F 9.4 °F 16.0 °F 71% 30.03 in 10.0 mi WSW 20.7 mph - N/A   Clear
2:52 PM 23.0 °F 9.2 °F 16.0 °F 74% 30.04 in 10.0 mi WSW 17.3 mph - N/A   Clear
3:52 PM 21.9 °F 11.7 °F 17.1 °F 82% 30.07 in 10.0 mi WSW 9.2 mph - N/A   Clear
4:52 PM 19.0 °F 12.3 °F 14.0 °F 81% 30.09 in 10.0 mi West 4.6 mph - N/A   Clear
5:52 PM 15.1 °F 5.2 °F 10.9 °F 84% 30.14 in 10.0 mi NW 6.9 mph - N/A   Clear
6:52 PM 14.0 °F 2.0 °F 9.0 °F 80% 30.17 in 10.0 mi NNW 9.2 mph - N/A   Clear
7:52 PM 9.0 °F -0.9 °F 5.0 °F 84% 30.19 in 10.0 mi NW 5.8 mph - N/A   Clear
8:52 PM 9.0 °F -4.2 °F 3.9 °F 80% 30.20 in 10.0 mi NNW 9.2 mph - N/A   Clear
9:52 PM 7.0 °F -4.5 °F 1.9 °F 80% 30.21 in 10.0 mi NNW 6.9 mph - N/A   Clear
10:52 PM 10.0 °F 1.8 °F 5.0 °F 80% 30.20 in 10.0 mi NW 4.6 mph - N/A   Clear
11:52 PM 8.1 °F -4.3 °F 3.0 °F 80% 30.19 in 10.0 mi NNW 8.1 mph - N/A   Clear